STARLINK-11260, 60997

Orbit data source: Space-Track

STARLINK-11260, 60997 is a payload satellite owned by SpaceX/Seattle (US) in LEO that was launched on Thu, 05 Sep 2024 UTC via an FALCON 9 launch vehicle from the Air Force Eastern Test Range (AFETR). Payload-class satellites include a variety of spacecraft equipped with specific instruments for various scientific and technological missions. These include communications satellites like Starlink; space stations such as the ISS; scientific satellites like the Hubble; Earth observation satellites from companies like Planet Labs, Umbra, and HawkEye 360; GPS; miniature CubeSats for education and research; and military/defense satellites.

Loading next visibility...
Identifier
60997, 2024-158H
Orbit
LEO
Country
Flag of USUS
Related business
Manufacturer
SpaceX/Seattle
Mission
Operational Commercial Communications
Bus & Motor
STARLINK V2MD, Unknown motor
Mass
960 kg wet, ~910 kg dry
Launch date (UTC)
2024-09-05 (2 years ago)
Launch vehicle
FALCON 9
Launch site
Air Force Eastern Test Range (AFETR)
Object type
Payload
Rocket body
Debris
Shape & HBR
Box + 2 Pan, 18.1 m
Radar Cross Section
36.964 m², Large (>1 m²)

Expand to show TLE details & history
Last TLE update: 8 hours ago

TLE from 8 hours ago
0 STARLINK-11260
1 60997U 24158H   26126.82651820  .00000285  00000-0  72096-5 0  9994
2 60997  53.1584 332.5087 0001098 115.4639 244.6493 15.69708214 97083
Epoch: 2026-05-06T19:50Z
TLE epoch observation values (Epoch: 2026-05-06T19:50:11.172Z)
Latitude
0.00001°
Longitude
170.28072°
Altitude
360.964 km
Speed
7.694 km/s
True Right ascension
22h 10m 02s
True Declination
0° 00' 00"
Sunlit
Object was in daylight at epoch
Visualization orbit readout
Latitude
Unknown
Longitude
Unknown
Altitude
Unknown
Speed
Unknown
Apparent Right ascension
Unknown
Apparent Declination
Unknown
Sunlit
N/A
Visualization observer readout
Local Sidereal Time
12:11:51
Azimuth
Unknown
Elevation
Unknown
Doppler factor
Unknown
Orbital elements
Apogee altitude
360.733 km
Perigee altitude
359.253 km
Semi-major axis
6,738.13 km
Eccentricity
0.00011
Inclination
53.1584°
RAAN
332.5087°
Arg. of periapsis
115.4639°
True anomaly
244.63793°
Mean anomaly
244.6493°
Eccentric anomaly
244.64361°
Mean motion
3.92405 °/min
Orbital period
91.74 mins
BSTAR
0.0000072096
Loading maneuver chart data...
Computing Atmospheric mass density...
Loading historical data...
Loading historical data...
Loading historical data...
Loading historical data...
Loading historical data...
Loading historical data...
Loading historical data...

Documentation

Showing up to 5 results
|